Location: *
(49.9853°N, 3.5569°E)
Time: 09:10:23
(UTC+00:00)

Cosmos 2227 Rocket - Pass Details

Date: 22 September 2019
Orbit: 837 x 847 km, 71.0° (Epoch: 17 October)

Event Time Altitude Azimuth Distance (km) Brightness Sun altitude
Rises 19:45:34 0° 213° (SSW) 3,385 5.4 -19.6°
Reaches altitude 10° 19:48:00 10° 215° (SW) 2,456 4.7 -20.0°
Maximum altitude 19:53:38 75° 301° (WNW) 878 2.3 -20.8°
Drops below altitude 10° 19:59:20 10° 27° (NNE) 2,478 4.6 -21.6°
Sets 20:01:48 0° 29° (NNE) 3,418 5.4 -22.0°
